Location: Dumpton Point
(51.3500°N, 1.4433°E)
Time: 01:12:44
(UTC+00:00)

S-56A Canister/Altair - All Passes

Search period start: 21 April 2021 00:00
Search period end: 01 May 2021 00:00
Orbit: 632 x 2500 km, 38.9° (Epoch: 20 April)

Date Brightness Start Highest point End Pass type
(mag) Time Alt. Az. Time Alt. Az. Time Alt. Az.
21 Apr - 01:35:31 10° WSW 01:39:53 21° S 01:43:30 10° SE visible
21 Apr - 20:58:31 10° S 21:01:11 12° SSE 21:03:36 10° SE visible
21 Apr - 22:58:39 10° SW 23:04:26 22° S 23:08:55 10° ESE visible
22 Apr - 01:02:29 10° WSW 01:07:24 23° S 01:11:20 10° SE night (unlit)
22 Apr - 03:08:05 10° SW 03:09:49 12° SSW 03:11:27 10° S visible
22 Apr - 20:26:03 10° SSE 20:28:28 11° SSE 20:30:41 10° SE visible
22 Apr - 22:25:32 10° SSW 22:31:48 22° SSE 22:36:35 10° ESE visible
23 Apr - 00:29:22 10° WSW 00:34:53 25° S 00:39:10 10° SE night (unlit)
23 Apr - 02:34:39 10° WSW 02:37:23 14° SSW 02:39:52 10° S visible
23 Apr - 19:53:49 10° SSE 19:55:43 11° SSE 19:57:30 10° SE visible
23 Apr - 21:52:25 10° SSW 21:59:08 23° SSE 22:04:14 10° ESE visible
23 Apr - 23:56:11 10° WSW 00:02:21 27° S 00:06:59 10° SE visible
24 Apr - 02:01:21 10° WSW 02:04:58 17° SSW 02:08:03 10° SSE visible
24 Apr - 19:22:32 10° SSE 19:22:56 10° SE 19:23:21 10° SE daylight
24 Apr - 21:19:15 10° SSW 21:26:25 23° SSE 21:31:51 10° ESE visible
24 Apr - 23:22:57 10° WSW 23:29:46 29° S 23:34:46 10° ESE visible
25 Apr - 01:28:05 10° WSW 01:32:30 19° SSW 01:36:08 10° SSE night (unlit)
25 Apr - 20:46:05 10° SSW 20:53:39 23° SSE 20:59:25 10° ESE visible
25 Apr - 22:49:39 10° SW 22:57:08 30° S 23:02:32 10° ESE visible
26 Apr - 00:54:47 10° WSW 01:00:02 22° SSW 01:04:09 10° SSE visible
26 Apr - 20:12:56 10° SSW 20:20:50 22° SSE 20:26:55 10° ESE visible
26 Apr - 22:16:19 10° SW 22:24:27 31° S 22:30:15 10° ESE visible
27 Apr - 00:21:28 10° WSW 00:27:31 25° SSW 00:32:06 10° SE visible
27 Apr - 19:39:49 10° SSW 19:47:59 22° SSE 19:54:21 10° ESE visible
27 Apr - 21:42:56 10° SW 21:51:43 32° S 21:57:57 10° ESE visible
27 Apr - 23:48:05 10° WSW 23:54:58 28° SSW 00:00:01 10° SE visible
28 Apr - 01:55:10 10° WSW 01:57:15 12° SW 01:59:09 10° SSW night (unlit)
28 Apr - 19:06:44 10° SSW 19:15:05 21° SSE 19:21:42 10° ESE daylight
28 Apr - 21:09:31 10° SW 21:18:55 33° S 21:25:36 10° ESE visible
28 Apr - 23:14:39 10° WSW 23:22:21 31° SSW 23:27:52 10° SE visible
29 Apr - 01:21:10 10° WSW 01:24:48 15° SW 01:27:54 10° S visible
29 Apr - 18:33:43 10° S 18:42:09 21° SSE 18:48:59 10° ESE daylight
29 Apr - 20:36:06 10° SW 20:46:04 33° S 20:53:12 10° ESE visible
29 Apr - 22:41:11 10° WSW 22:49:42 34° S 22:55:41 10° SE visible
30 Apr - 00:47:28 10° WSW 00:52:21 18° SSW 00:56:17 10° S visible
30 Apr - 18:00:48 10° S 18:09:10 20° SSE 18:16:07 10° ESE daylight
30 Apr - 20:02:41 10° SW 20:13:10 33° SSE 20:20:45 10° ESE visible
30 Apr - 22:07:40 10° WSW 22:16:58 36° S 22:23:27 10° SE visible
